IW0UWF-4 Weather Reports


Display with metric or nautical units.
time (UTC)temp
F
wind
direction
speed
MPH
gust
MPH
rain 1hr
in
rain 24hr
in
rain mn
in
humidity
%
barometer
mb
20260504050703 55 0 0.0 0.0 0.00 0.06 0.06 58 1008.2
20260504050603 55 0 0.0 0.0 0.00 0.06 0.06 58 1008.3
20260504050503 55 0 0.0 0.0 0.00 0.06 0.06 57 1008.2
20260504050403 55 0 0.0 0.0 0.00 0.06 0.06 57 1008.4
20260504050303 55 0 0.0 0.0 0.00 0.06 0.06 57 1008.3
20260504050204 55 0 0.0 0.0 0.00 0.06 0.06 57 1008.2
20260504050104 55 0 0.0 0.0 0.00 0.06 0.06 57 1008.4
20260504050004 55 0 0.0 0.0 0.00 0.06 0.06 57 1008.3
20260504045904 54 0 0.0 0.0 0.00 0.06 0.06 58 1008.3
20260504045804 54 0 0.0 0.0 0.00 0.06 0.06 58 1008.2
20260504045704 54 0 0.0 0.0 0.00 0.06 0.06 61 1008.2
20260504045604 54 0 0.0 0.0 0.00 0.06 0.06 62 1008.3
20260504045504 54 0 0.0 0.0 0.00 0.06 0.06 62 1008.3
20260504045403 54 0 0.0 0.0 0.00 0.06 0.06 62 1008.2
20260504045304 54 0 0.0 0.0 0.00 0.06 0.06 62 1008.2
20260504045203 54 38 0.0 2.0 0.00 0.06 0.06 62 1008.3
20260504045103 54 29 0.0 2.0 0.00 0.06 0.06 62 1008.2
20260504045004 54 29 0.0 2.0 0.00 0.06 0.06 62 1008.2
20260504044903 54 29 0.0 2.0 0.00 0.06 0.06 62 1008.2
20260504044803 54 29 0.0 2.0 0.00 0.06 0.06 62 1008.2
20260504044703 54 29 0.0 2.0 0.00 0.06 0.06 62 1008.1
20260504044603 54 29 0.0 2.0 0.00 0.06 0.06 62 1008.3
20260504044503 54 29 0.0 2.0 0.00 0.06 0.06 62 1008.2
20260504044403 54 29 0.0 2.0 0.00 0.06 0.06 61 1008.2
20260504044304 54 29 0.0 2.0 0.00 0.06 0.06 58 1008.2
20260504044204 54 22 0.0 2.0 0.00 0.06 0.06 58 1008.3
20260504044104 54 0 0.0 0.0 0.00 0.06 0.06 57 1008.3
20260504044004 54 0 0.0 0.0 0.00 0.06 0.06 57 1008.2
20260504043904 54 0 0.0 0.0 0.00 0.06 0.06 56 1008.1
20260504043804 55 0 0.0 0.0 0.00 0.06 0.06 56 1008.3
20260504043704 55 0 0.0 0.0 0.00 0.06 0.06 56 1008.3
20260504043603 55 0 0.0 0.0 0.00 0.06 0.06 56 1008.3
20260504043503 55 0 0.0 0.0 0.00 0.06 0.06 55 1008.2
20260504043403 55 0 0.0 0.0 0.00 0.06 0.06 55 1008.1
20260504043303 55 0 0.0 0.0 0.00 0.06 0.06 55 1008.3
20260504043203 55 0 0.0 0.0 0.00 0.06 0.06 55 1008.1
20260504043103 55 0 0.0 0.0 0.00 0.06 0.06 55 1008.3
20260504043003 55 0 0.0 0.0 0.00 0.06 0.06 55 1008.2
20260504042903 55 0 0.0 0.0 0.00 0.06 0.06 55 1008.2
20260504042803 55 0 0.0 0.0 0.00 0.06 0.06 55 1008.3
20260504042704 55 0 0.0 0.0 0.00 0.06 0.06 55 1008.3
20260504042603 55 0 0.0 0.0 0.00 0.06 0.06 55 1008.3
20260504042503 55 0 0.0 0.0 0.00 0.06 0.06 56 1008.3
20260504042403 54 0 0.0 0.0 0.00 0.06 0.06 56 1008.5
20260504042304 54 0 0.0 0.0 0.00 0.06 0.06 56 1008.3
20260504042204 54 0 0.0 0.0 0.00 0.06 0.06 57 1008.3
20260504042104 54 0 0.0 0.0 0.00 0.06 0.06 57 1008.2
20260504041703 54 0 0.0 0.0 0.00 0.06 0.06 61 1008.3
20260504041604 54 0 0.0 0.0 0.00 0.06 0.06 61 1008.1
20260504041505 54 0 0.0 0.0 0.00 0.06 0.06 61 1008.2
20260504041404 54 0 0.0 0.0 0.00 0.06 0.06 62 1008.1
20260504041304 54 0 0.0 0.0 0.00 0.06 0.06 62 1008.2
20260504041204 54 0 0.0 0.0 0.00 0.06 0.06 62 1008.3
20260504041104 54 0 0.0 0.0 0.00 0.06 0.06 62 1008.3
20260504041004 54 0 0.0 0.0 0.00 0.06 0.06 60 1008.2
20260504040904 54 0 0.0 0.0 0.00 0.06 0.06 60 1008.2
20260504040804 54 0 0.0 0.0 0.00 0.06 0.06 59 1008.2
20260504040703 54 0 0.0 0.0 0.00 0.06 0.06 59 1008.3
20260504040603 54 0 0.0 0.0 0.00 0.06 0.06 59 1008.2
20260504040503 54 0 0.0 0.0 0.00 0.06 0.06 59 1008.2
20260504040403 54 0 0.0 0.0 0.00 0.06 0.06 59 1008.3
20260504040303 54 0 0.0 0.0 0.00 0.06 0.06 59 1008.3
20260504040203 54 0 0.0 0.0 0.00 0.06 0.06 62 1008.2
20260504040103 54 0 0.0 0.0 0.00 0.06 0.06 62 1008.4
20260504040003 54 0 0.0 0.0 0.00 0.06 0.06 62 1008.2
20260504035903 54 0 0.0 0.0 0.00 0.06 0.06 62 1008.2
20260504035803 54 0 0.0 0.0 0.00 0.06 0.06 62 1008.2
20260504035703 54 0 0.0 0.0 0.00 0.06 0.06 62 1008.2
20260504035604 54 0 0.0 0.0 0.00 0.06 0.06 62 1008.3
20260504035504 54 0 0.0 0.0 0.00 0.06 0.06 62 1008.2
20260504035404 54 0 0.0 0.0 0.00 0.06 0.06 63 1008.2
20260504035305 54 0 0.0 0.0 0.00 0.06 0.06 63 1008.2
20260504035204 54 0 0.0 0.0 0.00 0.06 0.06 62 1008.4
20260504035104 54 0 0.0 0.0 0.00 0.06 0.06 62 1008.2
20260504035004 54 0 0.0 0.0 0.00 0.06 0.06 62 1008.1
20260504034904 54 0 0.0 0.0 0.00 0.06 0.06 59 1008.1
20260504034803 54 0 0.0 0.0 0.00 0.06 0.06 59 1008.2
20260504034704 54 0 0.0 0.0 0.00 0.06 0.06 58 1008.1
20260504034603 55 0 0.0 0.0 0.00 0.06 0.06 57 1008.2
20260504034503 55 0 0.0 0.0 0.00 0.06 0.06 57 1008.1
20260504034403 55 0 0.0 0.0 0.00 0.06 0.06 56 1008.1
20260504034303 55 0 0.0 0.0 0.00 0.06 0.06 56 1008.0
20260504034203 55 0 0.0 0.0 0.00 0.06 0.06 55 1008.2
20260504034103 55 0 0.0 0.0 0.00 0.06 0.06 55 1008.1
20260504034003 55 0 0.0 0.0 0.00 0.06 0.06 55 1008.0
20260504033903 55 0 0.0 0.0 0.00 0.06 0.06 54 1008.1
20260504033803 55 0 0.0 0.0 0.00 0.06 0.06 54 1008.0
20260504033704 55 0 0.0 0.0 0.00 0.06 0.06 54 1008.2
20260504033604 55 0 0.0 0.0 0.00 0.06 0.06 54 1008.1
20260504033504 55 0 0.0 0.0 0.00 0.06 0.06 54 1008.0
20260504033404 55 0 0.0 0.0 0.00 0.06 0.06 54 1008.1
20260504033304 55 0 0.0 0.0 0.00 0.06 0.06 54 1008.0
20260504033204 55 293 0.0 3.0 0.00 0.06 0.06 54 1008.0
20260504033104 55 240 1.0 3.0 0.00 0.06 0.06 54 1008.1
20260504033004 55 290 1.0 4.0 0.00 0.06 0.06 54 1008.1
20260504032904 55 290 1.0 4.0 0.00 0.06 0.06 54 1008.1
20260504032804 55 290 1.0 4.0 0.00 0.06 0.06 54 1008.1
20260504032703 55 290 1.0 4.0 0.00 0.06 0.06 54 1008.1
20260504032603 55 289 2.0 4.0 0.00 0.06 0.06 54 1008.0
20260504032503 55 289 2.0 4.0 0.00 0.06 0.06 54 1007.9
20260504032403 55 288 2.0 4.0 0.00 0.06 0.06 54 1007.9
20260504032304 55 288 3.0 4.0 0.00 0.06 0.06 54 1008.2
20260504032203 55 286 3.0 4.0 0.00 0.06 0.06 54 1008.1
20260504032103 55 299 3.0 4.0 0.00 0.06 0.06 54 1008.1
20260504031704 55 285 3.0 4.0 0.00 0.06 0.06 56 1008.3
20260504031604 55 287 3.0 4.0 0.00 0.06 0.06 56 1008.2
20260504031505 55 289 3.0 4.0 0.00 0.06 0.06 57 1008.3
20260504031404 55 282 3.0 4.0 0.00 0.06 0.06 58 1008.1
20260504031304 55 284 3.0 4.0 0.00 0.06 0.06 58 1008.2
20260504031204 55 276 3.0 4.0 0.00 0.06 0.06 59 1008.2
20260504031104 55 287 3.0 4.0 0.00 0.06 0.06 60 1008.2
20260504031004 55 287 3.0 4.0 0.00 0.06 0.06 60 1008.2
20260504030904 54 289 3.0 4.0 0.00 0.06 0.06 60 1008.2
20260504030804 54 290 3.0 4.0 0.00 0.06 0.06 61 1008.3
20260504030704 54 285 3.0 4.0 0.00 0.06 0.06 61 1008.2
20260504030604 54 280 3.0 4.0 0.00 0.06 0.06 65 1008.2
20260504030504 54 279 3.0 4.0 0.00 0.06 0.06 65 1008.2
20260504030403 54 283 3.0 4.0 0.00 0.06 0.06 66 1008.1
20260504030304 54 283 3.0 4.0 0.00 0.06 0.06 67 1008.1
20260504030203 54 284 2.0 4.0 0.00 0.06 0.06 68 1008.3
20260504030003 54 267 2.0 4.0 0.00 0.06 0.06 70 1008.3
20260504025903 54 270 2.0 3.0 0.00 0.06 0.06 70 1008.2
20260504025803 54 270 2.0 3.0 0.00 0.06 0.06 70 1008.3
20260504025703 54 270 2.0 2.0 0.00 0.06 0.06 70 1008.2
20260504025603 54 266 2.0 3.0 0.00 0.06 0.06 70 1008.3
20260504025518 54 265 2.0 3.0 0.00 0.06 0.06 70 1008.2
20260504025510 54 264 2.0 3.0 0.00 0.06 0.06 70 1008.2
20260504025204 54 253 2.0 3.0 0.00 0.06 0.06 71 1008.3
20260504025104 54 250 2.0 4.0 0.00 0.06 0.06 71 1008.3
20260504025004 54 257 3.0 4.0 0.00 0.06 0.06 71 1008.2
20260504024904 54 256 3.0 4.0 0.00 0.06 0.06 72 1008.2
20260504024804 54 256 3.0 4.0 0.00 0.06 0.06 72 1008.2
20260504024704 54 259 3.0 4.0 0.00 0.06 0.06 72 1008.3
20260504024604 54 265 3.0 4.0 0.00 0.06 0.06 72 1008.2
20260504024504 54 267 3.0 4.0 0.00 0.06 0.06 72 1008.3
20260504024403 54 268 3.0 4.0 0.00 0.06 0.06 72 1008.2
20260504024303 54 274 3.0 4.0 0.00 0.06 0.06 72 1008.3
20260504024203 53 279 3.0 4.0 0.00 0.06 0.06 73 1008.1
20260504024104 53 284 3.0 4.0 0.00 0.06 0.06 73 1008.3
20260504024004 53 288 3.0 4.0 0.00 0.06 0.06 73 1008.2
20260504023903 53 282 3.0 4.0 0.00 0.06 0.06 73 1008.1
20260504023803 53 282 3.0 4.0 0.00 0.06 0.06 73 1008.1
20260504023703 53 285 3.0 4.0 0.00 0.06 0.06 73 1008.2
20260504023603 53 284 4.0 4.0 0.00 0.06 0.06 74 1008.3
20260504023503 53 290 4.0 4.0 0.00 0.06 0.06 74 1008.2
20260504023403 53 294 4.0 4.0 0.00 0.06 0.06 74 1008.2
20260504023303 53 293 4.0 4.0 0.00 0.06 0.06 74 1008.2
20260504023203 53 295 3.0 4.0 0.00 0.06 0.06 74 1008.3
20260504023103 53 290 3.0 4.0 0.00 0.06 0.06 75 1008.2
20260504023004 53 287 3.0 4.0 0.00 0.06 0.06 75 1008.2
20260504022904 53 293 3.0 4.0 0.00 0.06 0.06 75 1008.3
20260504022804 53 296 3.0 4.0 0.00 0.06 0.06 75 1008.2
20260504022704 53 292 3.0 4.0 0.00 0.06 0.06 76 1008.2
20260504022604 52 295 3.0 4.0 0.00 0.06 0.06 76 1008.2
20260504022504 52 288 3.0 4.0 0.00 0.06 0.06 77 1008.2
20260504022404 52 280 2.0 5.0 0.00 0.06 0.06 77 1008.3
20260504022304 52 281 2.0 5.0 0.00 0.06 0.06 77 1008.2
20260504022203 52 282 3.0 5.0 0.00 0.06 0.06 78 1008.4
20260504022104 52 290 3.0 5.0 0.00 0.06 0.06 79 1008.3
20260504021703 52 291 4.0 5.0 0.00 0.06 0.06 80 1008.3
20260504021603 52 282 3.0 5.0 0.00 0.06 0.06 80 1008.4
20260504021503 52 282 3.0 5.0 0.00 0.06 0.06 81 1008.3
20260504021403 52 286 3.0 5.0 0.00 0.06 0.06 81 1008.2
20260504021303 52 297 3.0 4.0 0.00 0.06 0.06 81 1008.2
20260504021203 52 299 3.0 4.0 0.00 0.06 0.06 82 1008.4
20260504021103 52 304 3.0 4.0 0.00 0.06 0.06 82 1008.4
20260504021003 52 304 3.0 4.0 0.00 0.06 0.06 82 1008.1
20260504020903 52 301 3.0 4.0 0.00 0.06 0.06 83 1008.4
20260504020804 52 296 3.0 3.0 0.00 0.06 0.06 83 1008.3
20260504020704 52 302 3.0 3.0 0.00 0.06 0.06 83 1008.2
20260504020604 51 309 3.0 3.0 0.00 0.06 0.06 84 1008.3
20260504020504 51 309 3.0 3.0 0.00 0.06 0.06 84 1008.3
20260504020404 51 305 2.0 3.0 0.00 0.06 0.06 84 1008.2
20260504020304 51 303 2.0 3.0 0.00 0.06 0.06 84 1008.3
20260504020204 51 301 2.0 3.0 0.00 0.06 0.06 84 1008.3
20260504020104 51 298 2.0 3.0 0.00 0.06 0.06 84 1008.2
20260504020004 51 294 1.0 3.0 0.00 0.06 0.06 84 1008.2
20260504015909 51 298 1.0 3.0 0.00 0.06 0.06 84 1008.2
20260504015803 51 305 1.0 3.0 0.00 0.06 0.06 84 1008.3
20260504015703 51 300 1.0 3.0 0.00 0.06 0.06 84 1008.3
20260504015603 51 291 0.0 2.0 0.00 0.06 0.06 84 1008.3
20260504015503 51 288 0.0 2.0 0.00 0.06 0.06 84 1008.2
20260504015403 51 315 0.0 1.0 0.00 0.06 0.06 84 1008.3
20260504015304 51 315 0.0 1.0 0.00 0.06 0.06 84 1008.2
20260504015203 51 315 0.0 1.0 0.00 0.06 0.06 84 1008.4
20260504015103 51 315 0.0 1.0 0.00 0.06 0.06 84 1008.3
20260504015004 51 315 0.0 1.0 0.00 0.06 0.06 84 1008.3
20260504014904 51 0 0.0 0.0 0.00 0.06 0.06 84 1008.1
20260504014804 51 0 0.0 0.0 0.00 0.06 0.06 84 1008.2
20260504014704 51 0 0.0 0.0 0.00 0.06 0.06 84 1008.3
20260504014604 51 0 0.0 0.0 0.00 0.06 0.06 84 1008.3
20260504014503 51 0 0.0 0.0 0.00 0.06 0.06 84 1008.1
20260504014403 51 0 0.0 0.0 0.00 0.06 0.06 84 1008.3
20260504014303 51 0 0.0 0.0 0.00 0.06 0.06 84 1008.4
20260504014204 51 0 0.0 0.0 0.00 0.06 0.06 84 1008.4
20260504014103 51 0 0.0 0.0 0.01 0.06 0.06 84 1008.2
20260504014003 51 0 0.0 0.0 0.01 0.06 0.06 84 1008.3
20260504013903 51 0 0.0 0.0 0.01 0.06 0.06 84 1008.2
20260504013803 51 0 0.0 0.0 0.01 0.06 0.06 84 1008.3
20260504013703 51 0 0.0 0.0 0.01 0.06 0.06 84 1008.3
20260504013603 51 0 0.0 0.0 0.01 0.06 0.06 84 1008.1
20260504013503 51 0 0.0 0.0 0.01 0.06 0.06 84 1008.1
20260504013403 51 0 0.0 0.0 0.01 0.06 0.06 84 1008.2
20260504013303 51 0 0.0 0.0 0.01 0.06 0.06 84 1008.3
20260504013204 51 0 0.0 0.0 0.01 0.06 0.06 84 1008.0
20260504013104 51 0 0.0 0.0 0.01 0.06 0.06 84 1008.3
20260504013004 51 0 0.0 0.0 0.01 0.06 0.06 84 1008.3
20260504012904 51 0 0.0 0.0 0.01 0.06 0.06 84 1008.3
20260504012804 51 0 0.0 0.0 0.01 0.06 0.06 84 1008.2
20260504012704 51 0 0.0 0.0 0.01 0.06 0.06 84 1008.2
20260504012604 50 0 0.0 0.0 0.01 0.06 0.06 84 1008.1
20260504012504 50 0 0.0 0.0 0.01 0.06 0.06 84 1008.3
20260504012404 50 0 0.0 0.0 0.01 0.06 0.06 84 1008.1
20260504012304 50 0 0.0 0.0 0.01 0.06 0.06 84 1008.2
20260504012203 50 0 0.0 0.0 0.02 0.06 0.06 84 1008.2
20260504012104 50 0 0.0 0.0 0.02 0.06 0.06 84 1008.2
20260504011704 50 360 0.0 1.0 0.02 0.06 0.06 83 1008.4
20260504011604 50 360 0.0 2.0 0.02 0.06 0.06 83 1008.3
20260504011504 50 360 0.0 2.0 0.02 0.06 0.06 83 1008.5
20260504011404 50 360 0.0 2.0 0.02 0.06 0.06 83 1008.4
20260504011304 50 360 0.0 2.0 0.02 0.06 0.06 83 1008.4
20260504011204 50 360 0.0 2.0 0.02 0.06 0.06 83 1008.4
20260504011103 50 360 0.0 2.0 0.02 0.06 0.06 83 1008.5
20260504011003 50 360 0.0 2.0 0.04 0.06 0.06 83 1008.4
20260504010903 50 360 0.0 2.0 0.04 0.06 0.06 83 1008.4
20260504010803 50 360 0.0 2.0 0.04 0.06 0.06 82 1008.5
20260504010703 50 360 0.0 2.0 0.04 0.06 0.06 82 1008.5
20260504010603 50 0 0.0 0.0 0.04 0.06 0.06 82 1008.7
20260504010503 50 0 0.0 0.0 0.04 0.06 0.06 82 1008.6
20260504010403 50 0 0.0 0.0 0.05 0.06 0.06 82 1008.5
20260504010303 50 225 0.0 1.0 0.05 0.06 0.06 82 1008.6
20260504010203 50 225 0.0 1.0 0.05 0.06 0.06 82 1008.7
20260504010004 50 215 0.0 2.0 0.05 0.06 0.06 82 1008.7
20260504005904 50 215 0.0 2.0 0.05 0.06 0.06 82 1008.7
20260504005804 50 215 0.0 2.0 0.05 0.06 0.06 81 1008.7
20260504005708 50 215 0.0 2.0 0.05 0.06 0.06 81 1008.8
20260504005604 50 202 0.0 2.0 0.05 0.06 0.06 81 1008.8
20260504005504 50 204 0.0 2.0 0.05 0.06 0.06 81 1008.7
20260504005404 50 205 1.0 2.0 0.05 0.06 0.06 81 1008.9
20260504005305 50 203 1.0 2.0 0.05 0.06 0.06 81 1008.9
20260504005204 50 201 1.0 2.0 0.05 0.06 0.06 81 1008.9
20260504005104 50 195 0.0 2.0 0.05 0.06 0.06 81 1008.9
20260504005004 50 196 0.0 2.0 0.05 0.06 0.06 81 1008.9
20260504004904 50 196 0.0 2.0 0.05 0.06 0.06 81 1008.9
20260504004807 50 196 0.0 2.0 0.05 0.06 0.06 81 1008.9
20260504004704 50 196 0.0 2.0 0.05 0.06 0.06 81 1008.9
20260504004603 50 203 0.0 2.0 0.05 0.06 0.06 81 1008.9
20260504004503 50 195 0.0 2.0 0.05 0.06 0.06 81 1009.0
20260504004403 50 203 0.0 2.0 0.05 0.06 0.06 81 1008.9
20260504004303 50 200 0.0 2.0 0.05 0.06 0.06 81 1009.1
20260504004203 50 193 1.0 2.0 0.04 0.05 0.05 81 1008.9
20260504004103 50 189 1.0 2.0 0.04 0.05 0.05 81 1008.9
20260504004003 50 179 1.0 2.0 0.04 0.05 0.05 81 1008.9
20260504003903 51 179 1.0 2.0 0.04 0.05 0.05 81 1009.0
20260504003803 51 187 1.0 4.0 0.04 0.05 0.05 81 1009.1
20260504003704 51 188 2.0 4.0 0.04 0.05 0.05 81 1009.1
20260504003604 51 186 2.0 4.0 0.04 0.05 0.05 81 1009.2
20260504003504 51 193 2.0 4.0 0.04 0.05 0.05 81 1009.2
20260504003404 51 189 3.0 4.0 0.04 0.05 0.05 81 1009.2
20260504003304 51 190 3.0 4.0 0.05 0.05 0.05 81 1009.4
20260504003204 51 190 3.0 4.0 0.05 0.05 0.05 81 1009.2
20260504003104 51 187 3.0 4.0 0.05 0.05 0.05 81 1009.3
20260504003004 51 187 3.0 4.0 0.05 0.05 0.05 81 1009.3
20260504002904 51 186 3.0 4.0 0.05 0.05 0.05 81 1009.3
20260504002803 51 184 3.0 4.0 0.05 0.05 0.05 81 1009.3
20260504002703 51 182 3.0 4.0 0.05 0.05 0.05 81 1009.3
20260504002603 52 183 3.0 4.0 0.05 0.05 0.05 81 1009.4
20260504002503 52 173 3.0 4.0 0.05 0.05 0.05 81 1009.3
20260504002403 52 174 3.0 4.0 0.05 0.05 0.05 81 1009.3
20260504002304 52 170 3.0 4.0 0.04 0.04 0.04 81 1009.3
20260504002203 52 169 3.0 4.0 0.04 0.04 0.04 81 1009.3
20260504002103 52 177 3.0 4.0 0.04 0.04 0.04 82 1009.3
20260504001704 53 217 2.0 4.0 0.04 0.04 0.04 82 1009.2
20260504001604 53 228 2.0 4.0 0.04 0.04 0.04 82 1009.3
20260504001504 53 219 2.0 4.0 0.04 0.04 0.04 82 1009.3
20260504001404 53 224 2.0 4.0 0.04 0.04 0.04 82 1009.2
20260504001304 53 223 1.0 4.0 0.04 0.04 0.04 82 1009.2
20260504001203 53 222 1.0 4.0 0.04 0.04 0.04 82 1009.3
20260504001103 53 222 1.0 4.0 0.02 0.02 0.02 82 1009.2
20260504001003 54 222 1.0 4.0 0.02 0.02 0.02 82 1009.4
20260504000903 54 115 1.0 3.0 0.02 0.02 0.02 82 1009.3
20260504000803 54 139 0.0 3.0 0.02 0.02 0.02 82 1009.4
20260504000703 54 168 0.0 3.0 0.02 0.02 0.02 82 1009.1
20260504000603 54 180 0.0 2.0 0.02 0.02 0.02 82 1009.2
20260504000503 54 0 0.0 0.0 0.01 0.01 0.01 80 1009.2
20260504000404 54 0 0.0 0.0 0.01 0.01 0.01 80 1009.2
20260504000303 54 0 0.0 0.0 0.01 0.01 0.01 80 1009.1
20260504000204 54 0 0.0 0.0 0.01 0.01 0.01 80 1009.0
20260504000104 54 0 0.0 0.0 0.01 0.01 0.01 80 1009.3
20260504000004 54 0 0.0 0.0 0.01 0.01 0.01 80 1009.3
20260503235904 54 0 0.0 0.0 0.01 0.01 0.01 80 1009.3
20260503235804 55 0 0.0 0.0 0.01 0.01 0.01 79 1009.3
20260503235704 55 0 0.0 0.0 0.01 0.01 0.01 79 1009.2
20260503235604 55 0 0.0 0.0 0.01 0.01 0.01 79 1009.3
20260503235504 55 0 0.0 0.0 0.01 0.01 0.01 79 1009.3
20260503235404 55 0 0.0 0.0 0.01 0.01 0.01 79 1009.4
20260503235304 55 0 0.0 0.0 0.01 0.01 0.01 79 1009.3
20260503235204 55 0 0.0 0.0 0.01 0.01 0.01 79 1009.4
20260503235103 55 0 0.0 0.0 0.01 0.01 0.01 79 1009.3
20260503235003 55 0 0.0 0.0 0.01 0.01 0.01 78 1009.5
20260503234903 55 0 0.0 0.0 0.01 0.01 0.01 78 1009.5
20260503234805 55 0 0.0 0.0 0.01 0.01 0.01 78 1009.3
20260503234703 55 0 0.0 0.0 0.01 0.01 0.01 78 1009.5
20260503234603 55 0 0.0 0.0 0.01 0.01 0.01 78 1009.3
20260503234503 55 0 0.0 0.0 0.01 0.01 0.01 77 1009.4
20260503234403 55 0 0.0 0.0 0.01 0.01 0.01 77 1009.5
20260503234303 55 0 0.0 0.0 0.01 0.01 0.01 77 1009.4
20260503234203 55 0 0.0 0.0 0.01 0.01 0.01 77 1009.6
20260503234104 55 0 0.0 0.0 0.01 0.01 0.01 77 1009.4
20260503234004 55 0 0.0 0.0 0.01 0.01 0.01 76 1009.6
20260503233904 55 0 0.0 0.0 0.01 0.01 0.01 76 1009.6
20260503233804 56 0 0.0 0.0 0.01 0.01 0.01 76 1009.6
20260503233704 56 0 0.0 0.0 0.01 0.01 0.01 76 1009.6
20260503233604 56 0 0.0 0.0 0.01 0.01 0.01 76 1009.4
20260503233504 56 0 0.0 0.0 0.01 0.01 0.01 76 1009.6
20260503233404 56 0 0.0 0.0 0.00 0.00 0.00 76 1009.5
20260503233304 56 0 0.0 0.0 0.00 0.00 0.00 75 1009.6
20260503233204 56 0 0.0 0.0 0.00 0.00 0.00 75 1009.5
20260503233104 56 0 0.0 0.0 0.00 0.00 0.00 75 1009.5
20260503233003 56 0 0.0 0.0 0.00 0.00 0.00 75 1009.6
20260503232903 56 0 0.0 0.0 0.00 0.00 0.00 75 1009.6
20260503232803 56 0 0.0 0.0 0.00 0.00 0.00 75 1009.6
20260503232703 56 0 0.0 0.0 0.00 0.00 0.00 75 1009.5
20260503232603 56 0 0.0 0.0 0.00 0.00 0.00 75 1009.6
20260503232504 56 0 0.0 0.0 0.00 0.00 0.00 75 1009.7
20260503232403 56 0 0.0 0.0 0.00 0.00 0.00 74 1009.7
20260503232305 56 0 0.0 0.0 0.00 0.00 0.00 74 1009.8
20260503232203 56 0 0.0 0.0 0.00 0.00 0.00 74 1009.8
20260503232103 56 0 0.0 0.0 0.00 0.00 0.00 74 1009.6
20260503231704 56 0 0.0 0.0 0.00 0.00 0.00 74 1009.8
20260503231604 56 0 0.0 0.0 0.00 0.00 0.00 74 1009.8
20260503231504 56 0 0.0 0.0 0.00 0.00 0.00 74 1009.6
20260503231404 56 0 0.0 0.0 0.00 0.00 0.00 74 1009.6
20260503231004 56 0 0.0 0.0 0.00 0.00 0.00 73 1009.7
20260503230904 56 0 0.0 0.0 0.00 0.00 0.00 73 1009.7
20260503230804 56 0 0.0 0.0 0.00 0.00 0.00 73 1009.8
20260503230704 56 0 0.0 0.0 0.00 0.00 0.00 73 1009.8
20260503230604 56 0 0.0 0.0 0.00 0.00 0.00 73 1009.7
20260503230504 56 0 0.0 0.0 0.00 0.00 0.00 73 1009.7
20260503230404 56 0 0.0 0.0 0.00 0.00 0.00 73 1009.7
20260503230304 56 0 0.0 0.0 0.00 0.00 0.00 73 1009.6
20260503230203 56 0 0.0 0.0 0.00 0.00 0.00 73 1009.7
20260503230103 56 0 0.0 0.0 0.00 0.00 0.00 73 1009.7
20260503230003 56 0 0.0 0.0 0.00 0.00 0.00 73 1009.8
20260503225903 56 0 0.0 0.0 0.00 0.00 0.00 73 1009.7
20260503225803 56 0 0.0 0.0 0.00 0.00 0.00 73 1009.9
20260503225704 56 0 0.0 0.0 0.00 0.00 0.00 73 1009.8
20260503225603 56 0 0.0 0.0 0.00 0.00 0.00 73 1009.7
20260503225503 56 0 0.0 0.0 0.00 0.00 0.00 73 1009.9
20260503225403 56 0 0.0 0.0 0.00 0.00 0.00 72 1009.9
20260503225304 57 0 0.0 0.0 0.00 0.00 0.00 72 1009.9
20260503225205 57 0 0.0 0.0 0.00 0.00 0.00 72 1009.9
20260503225103 57 0 0.0 0.0 0.00 0.00 0.00 72 1009.9
20260503225004 57 0 0.0 0.0 0.00 0.00 0.00 72 1009.9
20260503224904 57 0 0.0 0.0 0.00 0.00 0.00 72 1009.9
20260503224804 57 0 0.0 0.0 0.00 0.00 0.00 72 1009.9
20260503224704 57 0 0.0 0.0 0.00 0.00 0.00 72 1009.9
20260503224604 57 0 0.0 0.0 0.00 0.00 0.00 72 1010.0
20260503224504 57 0 0.0 0.0 0.00 0.00 0.00 72 1009.9
20260503224403 57 0 0.0 0.0 0.00 0.00 0.00 72 1009.8
20260503224303 57 0 0.0 0.0 0.00 0.00 0.00 72 1009.8
20260503224204 57 0 0.0 0.0 0.00 0.00 0.00 72 1010.0
20260503224103 57 0 0.0 0.0 0.00 0.00 0.00 72 1009.9
20260503224003 57 0 0.0 0.0 0.00 0.00 0.00 72 1009.9
20260503223903 57 0 0.0 0.0 0.00 0.00 0.00 72 1010.0
20260503223803 57 0 0.0 0.0 0.00 0.00 0.00 72 1010.1
20260503223703 57 0 0.0 0.0 0.00 0.00 0.00 72 1010.0
20260503223603 57 0 0.0 0.0 0.00 0.00 0.00 72 1010.1
20260503223503 57 0 0.0 0.0 0.00 0.00 0.00 72 1009.9
20260503223403 57 0 0.0 0.0 0.00 0.00 0.00 72 1010.1
20260503223303 57 0 0.0 0.0 0.00 0.00 0.00 72 1010.1
20260503223204 57 0 0.0 0.0 0.00 0.00 0.00 72 1009.9
20260503223104 57 0 0.0 0.0 0.00 0.00 0.00 72 1009.9
20260503223004 57 0 0.0 0.0 0.00 0.00 0.00 72 1010.0
20260503222904 57 0 0.0 0.0 0.00 0.00 0.00 72 1010.0
20260503222804 57 0 0.0 0.0 0.00 0.00 0.00 72 1010.0
20260503222704 57 0 0.0 0.0 0.00 0.00 0.00 72 1009.9
20260503222604 57 0 0.0 0.0 0.00 0.00 0.00 72 1010.1
20260503222504 57 0 0.0 0.0 0.00 0.00 0.00 72 1010.1
20260503222403 57 0 0.0 0.0 0.00 0.00 0.00 72 1010.1
20260503222304 57 0 0.0 0.0 0.00 0.00 0.00 72 1010.0
20260503222203 57 0 0.0 0.0 0.00 0.00 0.00 72 1009.9
20260503222103 57 0 0.0 0.0 0.00 0.00 0.00 72 1010.0
20260503221704 57 0 0.0 0.0 0.00 0.00 0.00 72 1010.0
20260503221604 57 0 0.0 0.0 0.00 0.00 0.00 72 1010.2
20260503221504 57 0 0.0 0.0 0.00 0.00 0.00 72 1010.2
20260503221403 57 0 0.0 0.0 0.00 0.00 0.00 72 1010.1
20260503221303 57 0 0.0 0.0 0.00 0.00 0.00 72 1010.2
20260503221203 57 0 0.0 0.0 0.00 0.00 0.00 72 1010.1
20260503221103 57 0 0.0 0.0 0.00 0.00 0.00 72 1010.2
20260503221003 57 0 0.0 0.0 0.00 0.00 0.00 72 1010.1
20260503220903 57 0 0.0 0.0 0.00 0.00 0.00 72 1010.2
20260503220803 57 0 0.0 0.0 0.00 0.00 0.00 72 1010.0
20260503220703 57 0 0.0 0.0 0.00 0.00 0.00 72 1009.9
20260503220603 57 0 0.0 0.0 0.00 0.00 0.00 72 1010.0
20260503220503 57 0 0.0 0.0 0.00 0.00 0.00 72 1010.0
20260503220404 57 0 0.0 0.0 0.00 0.00 0.00 72 1010.0
20260503220304 57 0 0.0 0.0 0.00 0.00 0.00 72 1010.0
20260503220204 57 0 0.0 0.0 0.00 0.00 0.00 72 1010.1
20260503220104 57 0 0.0 0.0 0.00 0.00 0.00 72 1010.0
20260503220047 57 0 0.0 0.0 0.00 0.00 0.00 72 1010.0
20260503215904 57 0 0.0 0.0 0.00 0.00 0.00 72 1009.9
20260503215804 57 0 0.0 0.0 0.00 0.00 0.00 72 1009.9
20260503215704 57 0 0.0 0.0 0.00 0.00 0.00 71 1009.9
20260503215604 57 0 0.0 0.0 0.00 0.00 0.00 71 1009.9
20260503215503 57 0 0.0 0.0 0.00 0.00 0.00 71 1009.9
20260503215403 57 0 0.0 0.0 0.00 0.00 0.00 71 1009.9
20260503215304 57 0 0.0 0.0 0.00 0.00 0.00 71 1010.0
20260503215203 57 0 0.0 0.0 0.00 0.00 0.00 71 1009.9
20260503215103 57 0 0.0 0.0 0.00 0.00 0.00 71 1009.9
20260503215003 57 0 0.0 0.0 0.00 0.00 0.00 71 1009.9
20260503214903 57 0 0.0 0.0 0.00 0.00 0.00 71 1010.0
20260503214803 57 225 0.0 1.0 0.00 0.00 0.00 71 1009.9
20260503214703 57 247 0.0 1.0 0.00 0.00 0.00 71 1010.0
20260503214603 57 247 0.0 1.0 0.00 0.00 0.00 71 1009.9
20260503214503 57 247 0.0 1.0 0.00 0.00 0.00 71 1010.0
20260503214403 57 247 0.0 1.0 0.00 0.00 0.00 71 1010.0
20260503214303 57 247 0.0 1.0 0.00 0.00 0.00 71 1009.9
20260503214203 57 247 0.0 1.0 0.00 0.00 0.00 71 1009.9
20260503214104 57 247 0.0 1.0 0.00 0.00 0.00 71 1009.7
20260503214004 57 247 0.0 1.0 0.00 0.00 0.00 71 1009.9
20260503213904 57 247 0.0 1.0 0.00 0.00 0.00 71 1009.9
20260503213804 57 270 0.0 1.0 0.00 0.00 0.00 71 1009.9
20260503213704 57 0 0.0 0.0 0.00 0.00 0.00 71 1010.0
20260503213604 57 0 0.0 0.0 0.00 0.00 0.00 71 1009.9
20260503213504 57 0 0.0 0.0 0.00 0.00 0.00 71 1010.0
20260503213404 57 0 0.0 0.0 0.00 0.00 0.00 71 1009.9
20260503213304 57 0 0.0 0.0 0.00 0.00 0.00 71 1009.8
20260503213204 57 225 0.0 1.0 0.00 0.00 0.00 71 1009.9
20260503213104 57 225 0.0 1.0 0.00 0.00 0.00 71 1009.8
20260503213003 57 225 0.0 1.0 0.00 0.00 0.00 70 1009.8
20260503212903 57 225 0.0 1.0 0.00 0.00 0.00 70 1009.9
20260503212803 57 225 0.0 1.0 0.00 0.00 0.00 70 1009.8
20260503212703 57 225 0.0 1.0 0.00 0.00 0.00 70 1009.8
20260503212603 57 225 0.0 1.0 0.00 0.00 0.00 70 1009.8
20260503212503 57 225 0.0 1.0 0.00 0.00 0.00 70 1009.8
20260503212403 57 225 0.0 1.0 0.00 0.00 0.00 70 1009.8
20260503212305 57 225 0.0 1.0 0.00 0.00 0.00 70 1009.9
20260503212203 57 0 0.0 0.0 0.00 0.00 0.00 70 1010.0
20260503212103 57 0 0.0 0.0 0.00 0.00 0.00 70 1009.9
20260503211603 57 0 0.0 0.0 0.00 0.00 0.00 70 1010.0
20260503211303 57 0 0.0 0.0 0.00 0.00 0.00 70 1009.8
20260503211203 57 0 0.0 0.0 0.00 0.00 0.00 70 1009.9
20260503211103 57 0 0.0 0.0 0.00 0.00 0.00 70 1009.8
20260503211004 57 0 0.0 0.0 0.00 0.00 0.00 70 1009.8
20260503210904 57 0 0.0 0.0 0.00 0.00 0.00 70 1009.9
20260503210804 57 0 0.0 0.0 0.00 0.00 0.00 70 1009.8
20260503210704 57 0 0.0 0.0 0.00 0.00 0.00 70 1009.7
20260503210604 57 0 0.0 0.0 0.00 0.00 0.00 70 1009.8
20260503210504 57 0 0.0 0.0 0.00 0.00 0.00 70 1009.8
20260503210404 57 0 0.0 0.0 0.00 0.00 0.00 70 1009.8
20260503210304 57 0 0.0 0.0 0.00 0.00 0.00 70 1009.9
20260503210204 57 0 0.0 0.0 0.00 0.00 0.00 70 1009.8
20260503210103 57 0 0.0 0.0 0.00 0.00 0.00 70 1009.8
20260503210004 57 0 0.0 0.0 0.00 0.00 0.00 70 1009.8
20260503205904 57 0 0.0 0.0 0.00 0.00 0.00 70 1009.8
20260503205803 57 0 0.0 0.0 0.00 0.00 0.00 69 1009.9
20260503205703 57 0 0.0 0.0 0.00 0.00 0.00 69 1009.9
20260503205603 57 0 0.0 0.0 0.00 0.00 0.00 69 1010.0
20260503205503 57 0 0.0 0.0 0.00 0.00 0.00 69 1009.9
20260503205403 57 0 0.0 0.0 0.00 0.00 0.00 69 1010.0
20260503205304 57 0 0.0 0.0 0.00 0.00 0.00 69 1010.0
20260503205203 57 0 0.0 0.0 0.00 0.00 0.00 69 1009.9
20260503205104 57 135 0.0 1.0 0.00 0.00 0.00 68 1009.9
20260503205004 57 171 0.0 1.0 0.00 0.00 0.00 68 1009.9
20260503204904 57 187 0.0 1.0 0.00 0.00 0.00 68 1009.9
20260503204804 57 187 0.0 1.0 0.00 0.00 0.00 68 1010.0
20260503204704 57 187 0.0 1.0 0.00 0.00 0.00 68 1009.9
20260503204604 57 187 0.0 1.0 0.00 0.00 0.00 68 1009.9
20260503204504 57 187 0.0 1.0 0.00 0.00 0.00 68 1010.0
20260503204404 57 187 0.0 1.0 0.00 0.00 0.00 68 1010.0
20260503204304 57 187 0.0 1.0 0.00 0.00 0.00 68 1009.9
20260503204204 57 187 0.0 1.0 0.00 0.00 0.00 68 1009.9
20260503204104 57 222 0.0 1.0 0.00 0.00 0.00 68 1010.0
20260503204004 57 270 0.0 1.0 0.00 0.00 0.00 68 1009.8
20260503203904 58 0 0.0 0.0 0.00 0.00 0.00 68 1010.0
20260503203803 58 0 0.0 0.0 0.00 0.00 0.00 68 1009.9
20260503203704 58 0 0.0 0.0 0.00 0.00 0.00 68 1010.1
20260503203603 58 0 0.0 0.0 0.00 0.00 0.00 68 1010.1
20260503203503 58 0 0.0 0.0 0.00 0.00 0.00 68 1010.0
20260503203403 58 0 0.0 0.0 0.00 0.00 0.00 68 1010.0
20260503203303 58 0 0.0 0.0 0.00 0.00 0.00 67 1010.1
20260503203203 58 0 0.0 0.0 0.00 0.00 0.00 67 1010.0
20260503203105 58 0 0.0 0.0 0.00 0.00 0.00 67 1010.2
20260503203004 58 0 0.0 0.0 0.00 0.00 0.00 67 1010.0
20260503202904 58 0 0.0 0.0 0.00 0.00 0.00 67 1010.2
20260503202804 58 0 0.0 0.0 0.00 0.00 0.00 67 1010.1
20260503202704 58 0 0.0 0.0 0.00 0.00 0.00 67 1009.9
20260503202604 58 0 0.0 0.0 0.00 0.00 0.00 67 1010.1
20260503202504 58 306 0.0 1.0 0.00 0.00 0.00 67 1010.0
20260503202404 58 309 0.0 1.0 0.00 0.00 0.00 67 1010.1
20260503202304 58 309 0.0 1.0 0.00 0.00 0.00 67 1010.3
20260503202204 58 312 0.0 2.0 0.00 0.00 0.00 67 1010.0
20260503202104 58 312 0.0 2.0 0.00 0.00 0.00 67 1010.1
20260503201704 59 285 0.0 2.0 0.00 0.00 0.00 67 1010.0
20260503201604 59 285 0.0 2.0 0.00 0.00 0.00 67 1010.1
20260503201505 59 305 1.0 3.0 0.00 0.00 0.00 67 1010.1
20260503201404 59 312 1.0 3.0 0.00 0.00 0.00 68 1010.1
20260503201304 59 315 1.0 3.0 0.00 0.00 0.00 68 1010.1
20260503201203 59 315 2.0 3.0 0.00 0.00 0.00 68 1010.1
20260503201103 59 315 2.0 3.0 0.00 0.00 0.00 68 1010.1
20260503201004 59 315 2.0 3.0 0.00 0.00 0.00 68 1010.1
20260503200903 59 315 2.0 3.0 0.00 0.00 0.00 68 1010.1
20260503200803 59 315 3.0 3.0 0.00 0.00 0.00 69 1010.1
20260503200703 59 315 3.0 3.0 0.00 0.00 0.00 69 1010.0
20260503200603 58 314 3.0 3.0 0.00 0.00 0.00 70 1010.0
20260503200503 58 309 3.0 4.0 0.00 0.00 0.00 70 1010.1
20260503200403 58 307 3.0 4.0 0.00 0.00 0.00 70 1010.1
20260503200304 58 306 3.0 4.0 0.00 0.00 0.00 70 1010.0
20260503200204 58 305 2.0 4.0 0.00 0.00 0.00 70 1010.0
20260503200104 58 304 2.0 4.0 0.00 0.00 0.00 70 1010.0
20260503200004 58 301 2.0 4.0 0.00 0.00 0.00 70 1010.0
20260503195904 58 298 1.0 4.0 0.00 0.00 0.00 70 1010.1
20260503195804 58 292 1.0 4.0 0.00 0.00 0.00 70 1010.1
20260503195704 58 282 1.0 4.0 0.00 0.00 0.00 71 1010.0
20260503195604 58 270 0.0 4.0 0.00 0.00 0.00 71 1010.0
20260503195504 58 270 0.0 4.0 0.00 0.00 0.00 71 1009.9
20260503195404 58 0 0.0 0.0 0.00 0.00 0.00 71 1009.9
20260503195304 57 0 0.0 0.0 0.00 0.00 0.00 71 1010.0
20260503195203 57 0 0.0 0.0 0.00 0.00 0.00 71 1010.0
20260503195103 57 0 0.0 0.0 0.00 0.00 0.00 71 1010.0
20260503195003 57 0 0.0 0.0 0.00 0.00 0.00 71 1010.1
20260503194903 57 0 0.0 0.0 0.00 0.00 0.00 71 1009.9
20260503194803 57 0 0.0 0.0 0.00 0.00 0.00 71 1009.8
20260503194703 57 0 0.0 0.0 0.00 0.00 0.00 71 1010.0
20260503194603 57 0 0.0 0.0 0.00 0.00 0.00 71 1009.9
20260503194503 57 0 0.0 0.0 0.00 0.00 0.00 71 1010.0
20260503194404 57 0 0.0 0.0 0.00 0.00 0.00 71 1009.8
20260503194304 57 0 0.0 0.0 0.00 0.00 0.00 71 1009.8
20260503194204 57 0 0.0 0.0 0.00 0.00 0.00 71 1010.0
20260503194104 57 0 0.0 0.0 0.00 0.00 0.00 71 1009.8
20260503194004 57 0 0.0 0.0 0.00 0.00 0.00 71 1009.9
20260503193905 57 0 0.0 0.0 0.00 0.00 0.00 71 1009.8
20260503193804 57 0 0.0 0.0 0.00 0.00 0.00 71 1009.8
20260503193704 57 0 0.0 0.0 0.00 0.00 0.00 71 1009.9
20260503193604 57 0 0.0 0.0 0.00 0.00 0.00 71 1009.8
20260503193503 57 0 0.0 0.0 0.00 0.00 0.00 71 1009.8
20260503193403 57 0 0.0 0.0 0.00 0.00 0.00 71 1009.8
20260503193304 57 0 0.0 0.0 0.00 0.00 0.00 71 1009.8
20260503193203 57 0 0.0 0.0 0.00 0.00 0.00 71 1009.8
20260503193103 57 0 0.0 0.0 0.00 0.00 0.00 71 1009.8
20260503193003 57 0 0.0 0.0 0.00 0.00 0.00 71 1009.9
20260503192903 57 0 0.0 0.0 0.00 0.00 0.00 70 1009.9
20260503192803 57 0 0.0 0.0 0.00 0.00 0.00 70 1009.8
20260503192705 57 0 0.0 0.0 0.00 0.00 0.00 70 1009.9
20260503192603 57 0 0.0 0.0 0.00 0.00 0.00 70 1009.9
20260503192503 57 0 0.0 0.0 0.00 0.00 0.00 70 1010.0
20260503192404 57 0 0.0 0.0 0.00 0.00 0.00 70 1009.9
20260503192305 57 0 0.0 0.0 0.00 0.00 0.00 70 1010.0
20260503192204 57 0 0.0 0.0 0.00 0.00 0.00 70 1009.9
20260503192104 57 0 0.0 0.0 0.00 0.00 0.00 70 1009.8
20260503191703 57 0 0.0 0.0 0.00 0.00 0.00 70 1009.9
20260503191604 57 0 0.0 0.0 0.00 0.00 0.00 70 1009.8
20260503191503 57 0 0.0 0.0 0.00 0.00 0.00 70 1009.8
20260503191403 57 0 0.0 0.0 0.00 0.00 0.00 70 1009.8
20260503191305 57 0 0.0 0.0 0.00 0.00 0.00 70 1009.8
20260503191203 57 0 0.0 0.0 0.00 0.00 0.00 70 1009.8
20260503191103 57 0 0.0 0.0 0.00 0.00 0.00 70 1009.8
20260503191003 57 0 0.0 0.0 0.00 0.00 0.00 70 1010.0
20260503190904 57 0 0.0 0.0 0.00 0.00 0.00 70 1009.7
20260503190804 57 0 0.0 0.0 0.00 0.00 0.00 70 1009.8
20260503190704 57 0 0.0 0.0 0.00 0.00 0.00 70 1009.7
20260503190604 57 0 0.0 0.0 0.00 0.00 0.00 70 1009.6
20260503190504 57 0 0.0 0.0 0.00 0.00 0.00 69 1009.6
20260503190404 57 0 0.0 0.0 0.00 0.00 0.00 69 1009.7
20260503190304 57 0 0.0 0.0 0.00 0.00 0.00 69 1009.6
20260503190204 57 0 0.0 0.0 0.00 0.00 0.00 69 1009.5
20260503190104 57 0 0.0 0.0 0.00 0.00 0.00 69 1009.5
20260503190004 57 0 0.0 0.0 0.00 0.00 0.00 69 1009.6
20260503185904 57 0 0.0 0.0 0.00 0.00 0.00 69 1009.5
20260503185804 57 0 0.0 0.0 0.00 0.00 0.00 69 1009.7
20260503185704 57 0 0.0 0.0 0.00 0.00 0.00 68 1009.6
20260503185604 57 0 0.0 0.0 0.00 0.00 0.00 68 1009.4
20260503185503 57 0 0.0 0.0 0.00 0.00 0.00 68 1009.5
20260503185403 57 0 0.0 0.0 0.00 0.00 0.00 68 1009.4
20260503185304 57 0 0.0 0.0 0.00 0.00 0.00 68 1009.4
20260503185203 57 0 0.0 0.0 0.00 0.00 0.00 68 1009.4
20260503185103 57 0 0.0 0.0 0.00 0.00 0.00 68 1009.4
20260503185003 57 0 0.0 0.0 0.00 0.00 0.00 67 1009.4
20260503184903 57 0 0.0 0.0 0.00 0.00 0.00 67 1009.5
20260503184803 57 0 0.0 0.0 0.00 0.00 0.00 67 1009.4
20260503184704 57 0 0.0 0.0 0.00 0.00 0.00 67 1009.3
20260503184604 57 0 0.0 0.0 0.00 0.00 0.00 67 1009.3
20260503184504 57 0 0.0 0.0 0.00 0.00 0.00 67 1009.4
20260503184404 57 0 0.0 0.0 0.00 0.00 0.00 67 1009.4
20260503184304 57 0 0.0 0.0 0.00 0.00 0.00 67 1009.3
20260503184204 58 0 0.0 0.0 0.00 0.00 0.00 66 1009.3
20260503184104 58 0 0.0 0.0 0.00 0.00 0.00 66 1009.3
20260503184004 58 0 0.0 0.0 0.00 0.00 0.00 66 1009.3
20260503183904 58 0 0.0 0.0 0.00 0.00 0.00 66 1009.4
20260503183804 58 0 0.0 0.0 0.00 0.00 0.00 66 1009.2
20260503183703 58 0 0.0 0.0 0.00 0.00 0.00 66 1009.2
20260503183604 58 0 0.0 0.0 0.00 0.00 0.00 66 1009.3
20260503183503 58 0 0.0 0.0 0.00 0.00 0.00 66 1009.3
20260503183403 58 0 0.0 0.0 0.00 0.00 0.00 65 1009.2
20260503183303 58 0 0.0 0.0 0.00 0.00 0.00 65 1009.3
20260503183203 58 0 0.0 0.0 0.00 0.00 0.00 65 1009.3
20260503183103 58 0 0.0 0.0 0.00 0.00 0.00 65 1009.2
20260503183003 58 0 0.0 0.0 0.00 0.00 0.00 65 1009.2
20260503182903 58 0 0.0 0.0 0.00 0.00 0.00 65 1009.3
20260503182803 59 0 0.0 0.0 0.00 0.00 0.00 65 1009.4
20260503182704 59 0 0.0 0.0 0.00 0.00 0.00 65 1009.4
20260503182604 59 0 0.0 0.0 0.00 0.00 0.00 65 1009.4
20260503182504 59 0 0.0 0.0 0.00 0.00 0.00 64 1009.4
20260503182404 59 0 0.0 0.0 0.00 0.00 0.00 64 1009.4
20260503182305 59 0 0.0 0.0 0.00 0.00 0.00 64 1009.4
20260503182204 59 0 0.0 0.0 0.00 0.00 0.00 64 1009.4
20260503182104 59 0 0.0 0.0 0.00 0.00 0.00 64 1009.4
20260503181704 59 0 0.0 0.0 0.00 0.00 0.00 63 1009.3
20260503181604 59 0 0.0 0.0 0.00 0.00 0.00 63 1009.3
20260503181505 59 0 0.0 0.0 0.00 0.00 0.00 63 1009.4
20260503181404 60 0 0.0 0.0 0.00 0.00 0.00 63 1009.4
20260503181304 60 0 0.0 0.0 0.00 0.00 0.00 62 1009.3
20260503181204 60 0 0.0 0.0 0.00 0.00 0.00 62 1009.3
20260503181104 60 0 0.0 0.0 0.00 0.00 0.00 62 1009.4
20260503181004 60 0 0.0 0.0 0.00 0.00 0.00 62 1009.3
20260503180904 60 0 0.0 0.0 0.00 0.00 0.00 62 1009.2
20260503180803 60 0 0.0 0.0 0.00 0.00 0.00 62 1009.2
20260503180703 60 0 0.0 0.0 0.00 0.00 0.00 62 1009.3
20260503180604 60 0 0.0 0.0 0.00 0.00 0.00 61 1009.3
20260503180503 60 0 0.0 0.0 0.00 0.00 0.00 61 1009.3
20260503180403 60 0 0.0 0.0 0.00 0.00 0.00 61 1009.3
20260503180303 60 0 0.0 0.0 0.00 0.00 0.00 61 1009.4
20260503180203 61 0 0.0 0.0 0.00 0.00 0.00 61 1009.3
20260503180103 61 0 0.0 0.0 0.00 0.00 0.00 61 1009.3
20260503180003 61 0 0.0 0.0 0.00 0.00 0.00 61 1009.3
20260503175903 61 0 0.0 0.0 0.00 0.00 0.00 61 1009.3
20260503175804 61 0 0.0 0.0 0.00 0.00 0.00 60 1009.3
20260503175704 61 0 0.0 0.0 0.00 0.00 0.00 60 1009.1
20260503175604 61 0 0.0 0.0 0.00 0.00 0.00 60 1009.3
20260503175504 61 0 0.0 0.0 0.00 0.00 0.00 60 1009.3
20260503175404 61 0 0.0 0.0 0.00 0.00 0.00 60 1009.2
20260503175305 61 0 0.0 0.0 0.00 0.00 0.00 60 1009.3
20260503175204 61 0 0.0 0.0 0.00 0.00 0.00 60 1009.2
20260503175104 61 0 0.0 0.0 0.00 0.00 0.00 60 1009.3
20260503175004 61 0 0.0 0.0 0.00 0.00 0.00 60 1009.3
20260503174904 62 0 0.0 0.0 0.00 0.00 0.00 59 1009.3
20260503174803 62 0 0.0 0.0 0.00 0.00 0.00 59 1009.2
20260503174704 62 0 0.0 0.0 0.00 0.00 0.00 59 1009.2
20260503174604 62 0 0.0 0.0 0.00 0.00 0.00 59 1009.2
20260503174503 62 0 0.0 0.0 0.00 0.00 0.00 59 1009.2
20260503174403 62 0 0.0 0.0 0.00 0.00 0.00 59 1009.2
20260503174303 62 0 0.0 0.0 0.00 0.00 0.00 59 1009.3
20260503174203 62 0 0.0 0.0 0.00 0.00 0.00 58 1009.2
20260503174103 62 0 0.0 0.0 0.00 0.00 0.00 58 1009.2
20260503174003 62 225 0.0 1.0 0.00 0.00 0.00 58 1009.3
20260503173903 62 225 0.0 1.0 0.00 0.00 0.00 58 1009.4
20260503173804 62 215 0.0 1.0 0.00 0.00 0.00 58 1009.3
20260503173704 62 209 0.0 1.0 0.00 0.00 0.00 58 1009.3
20260503173604 62 212 0.0 1.0 0.00 0.00 0.00 58 1009.4
20260503173504 62 206 0.0 1.0 0.00 0.00 0.00 58 1009.5
20260503173404 62 206 0.0 1.0 0.00 0.00 0.00 57 1009.4
20260503173304 62 198 0.0 1.0 0.00 0.00 0.00 57 1009.3
20260503173204 62 218 1.0 2.0 0.00 0.00 0.00 57 1009.5
20260503173104 62 215 1.0 2.0 0.00 0.00 0.00 57 1009.4
20260503173004 63 209 1.0 2.0 0.00 0.00 0.00 56 1009.6
20260503172904 63 207 1.0 2.0 0.00 0.00 0.00 56 1009.4
20260503172804 63 211 1.0 2.0 0.00 0.00 0.00 56 1009.4
20260503172704 63 214 1.0 2.0 0.00 0.00 0.00 56 1009.4
20260503172604 63 212 1.0 2.0 0.00 0.00 0.00 56 1009.4
20260503172504 63 221 1.0 2.0 0.00 0.00 0.00 56 1009.5
20260503172403 63 221 1.0 2.0 0.00 0.00 0.00 56 1009.5
20260503172305 63 231 1.0 2.0 0.00 0.00 0.00 56 1009.5
20260503172203 63 197 1.0 2.0 0.00 0.00 0.00 55 1009.5
20260503172103 63 220 1.0 3.0 0.00 0.00 0.00 55 1009.6
20260503171703 64 269 1.0 3.0 0.00 0.00 0.00 51 1009.5
20260503171603 64 269 1.0 3.0 0.00 0.00 0.00 51 1009.6
20260503171503 64 269 1.0 3.0 0.00 0.00 0.00 51 1009.6
20260503171403 64 269 1.0 3.0 0.00 0.00 0.00 51 1009.5
20260503171303 64 260 2.0 4.0 0.00 0.00 0.00 51 1009.5
20260503171203 64 255 2.0 4.0 0.00 0.00 0.00 51 1009.6
20260503171103 64 250 2.0 4.0 0.00 0.00 0.00 50 1009.6
20260503171003 64 248 2.0 5.0 0.00 0.00 0.00 50 1009.6
20260503170903 64 268 2.0 5.0 0.00 0.00 0.00 50 1009.6
20260503170803 64 286 2.0 5.0 0.00 0.00 0.00 50 1009.5
20260503170703 64 286 2.0 5.0 0.00 0.00 0.00 50 1009.6
20260503170603 64 286 2.0 5.0 0.00 0.00 0.00 50 1009.8
20260503170504 65 286 2.0 5.0 0.00 0.00 0.00 49 1009.7
20260503170404 65 283 2.0 5.0 0.00 0.00 0.00 49 1009.5
20260503170304 65 293 2.0 5.0 0.00 0.00 0.00 49 1009.7
20260503170204 65 309 2.0 5.0 0.00 0.00 0.00 48 1009.6
20260503170104 65 306 2.0 5.0 0.00 0.00 0.00 48 1009.6
20260503160204 68 289 4.0 7.0 0.00 0.00 0.00 43 1009.7
20260503160105 68 291 4.0 7.0 0.00 0.00 0.00 43 1009.6
20260503151003 70 75 4.0 6.0 0.00 0.00 0.00 41 1009.5
20260503150903 70 70 4.0 6.0 0.00 0.00 0.00 41 1009.3
20260503150803 70 63 4.0 6.0 0.00 0.00 0.00 41 1009.5
20260503150703 70 57 4.0 6.0 0.00 0.00 0.00 41 1009.4
20260503150603 69 65 4.0 6.0 0.00 0.00 0.00 42 1009.5
20260503150503 69 66 4.0 4.0 0.00 0.00 0.00 42 1009.4
20260503150403 69 28 4.0 4.0 0.00 0.00 0.00 42 1009.4
20260503150304 69 337 4.0 6.0 0.00 0.00 0.00 42 1009.4
20260503150204 69 312 4.0 6.0 0.00 0.00 0.00 42 1009.5
20260503150104 69 289 4.0 6.0 0.00 0.00 0.00 42 1009.5
20260503140304 72 152 0.0 4.0 0.00 0.00 0.00 30 1009.6
20260503140204 72 137 1.0 4.0 0.00 0.00 0.00 30 1009.7
20260503140104 72 139 1.0 4.0 0.00 0.00 0.00 30 1009.6
20260503131406 74 272 2.0 5.0 0.00 0.00 0.00 36 1010.3
20260503131304 74 272 2.0 5.0 0.00 0.00 0.00 35 1010.2
20260503131204 75 261 1.0 5.0 0.00 0.00 0.00 35 1010.3
20260503131104 75 153 1.0 5.0 0.00 0.00 0.00 35 1010.3
20260503131004 75 270 0.0 2.0 0.00 0.00 0.00 35 1010.4
20260503130904 75 270 0.0 2.0 0.00 0.00 0.00 35 1010.4
20260503130804 75 270 0.0 2.0 0.00 0.00 0.00 35 1010.4
20260503130703 75 270 0.0 2.0 0.00 0.00 0.00 35 1010.4
20260503130603 75 270 0.0 2.0 0.00 0.00 0.00 36 1010.5
20260503130503 74 0 0.0 0.0 0.00 0.00 0.00 36 1010.6
20260503130404 74 270 0.0 1.0 0.00 0.00 0.00 36 1010.5
20260503130303 74 310 0.0 1.0 0.00 0.00 0.00 36 1010.4
20260503130204 74 311 0.0 1.0 0.00 0.00 0.00 36 1010.4
20260503130103 74 271 0.0 2.0 0.00 0.00 0.00 36 1010.4
20260503120204 74 116 1.0 4.0 0.00 0.00 0.00 38 1010.8
20260503120103 74 117 1.0 4.0 0.00 0.00 0.00 38 1010.9
20260503110803 72 153 3.0 6.0 0.00 0.00 0.00 40 1011.2
20260503110703 72 151 3.0 6.0 0.00 0.00 0.00 40 1011.2
20260503110603 72 148 3.0 6.0 0.00 0.00 0.00 40 1011.2
20260503110503 72 152 3.0 6.0 0.00 0.00 0.00 40 1011.2
20260503110404 71 152 4.0 6.0 0.00 0.00 0.00 40 1011.3
20260503110304 71 144 4.0 6.0 0.00 0.00 0.00 41 1011.3
20260503110204 72 145 4.0 6.0 0.00 0.00 0.00 40 1011.2
20260503110104 72 148 4.0 6.0 0.00 0.00 0.00 40 1011.2
20260503100204 72 175 5.0 8.0 0.00 0.00 0.00 41 1011.9
20260503100104 72 153 5.0 8.0 0.00 0.00 0.00 41 1011.8
20260503090503 73 225 0.0 1.0 0.00 0.00 0.00 25 1012.1
20260503090403 73 225 0.0 1.0 0.00 0.00 0.00 25 1012.1
20260503090303 73 225 0.0 1.0 0.00 0.00 0.00 25 1012.1
20260503090203 73 225 0.0 1.0 0.00 0.00 0.00 25 1011.9
20260503081603 71 150 2.0 4.0 0.00 0.00 0.00 32 1011.4
20260503081503 71 152 2.0 4.0 0.00 0.00 0.00 32 1011.5
20260503081403 72 163 2.0 4.0 0.00 0.00 0.00 33 1011.2
20260503081303 71 169 1.0 4.0 0.00 0.00 0.00 34 1011.4
20260503081203 71 169 1.0 4.0 0.00 0.00 0.00 34 1011.4
20260503081103 71 169 1.0 4.0 0.00 0.00 0.00 34 1011.3
20260503081003 71 168 1.0 4.0 0.00 0.00 0.00 33 1011.3
20260503080903 71 164 1.0 4.0 0.00 0.00 0.00 33 1011.3
20260503080803 71 167 1.0 4.0 0.00 0.00 0.00 33 1011.3
20260503080703 71 169 1.0 4.0 0.00 0.00 0.00 32 1011.4
20260503080604 71 182 1.0 4.0 0.00 0.00 0.00 33 1011.2
20260503080504 70 185 1.0 3.0 0.00 0.00 0.00 33 1011.2
20260503080404 70 184 1.0 3.0 0.00 0.00 0.00 33 1011.5
20260503080304 70 179 1.0 4.0 0.00 0.00 0.00 33 1011.3
20260503080204 70 174 2.0 4.0 0.00 0.00 0.00 33 1011.3
20260503080104 70 175 2.0 4.0 0.00 0.00 0.00 33 1011.3
20260503072903 68 184 3.0 6.0 0.00 0.00 0.00 40 1011.3
20260503072803 68 183 3.0 6.0 0.00 0.00 0.00 40 1011.4
20260503072703 68 175 2.0 6.0 0.00 0.00 0.00 40 1011.4
20260503072603 67 175 2.0 6.0 0.00 0.00 0.00 40 1011.4
20260503072503 67 176 3.0 6.0 0.00 0.00 0.00 41 1011.5
20260503072404 67 168 2.0 6.0 0.00 0.00 0.00 41 1011.4
20260503072305 67 167 3.0 4.0 0.00 0.00 0.00 41 1011.4
20260503072204 67 165 3.0 4.0 0.00 0.00 0.00 42 1011.4
20260503072104 67 174 3.0 4.0 0.00 0.00 0.00 42 1011.3
20260503072004 67 196 2.0 4.0 0.00 0.00 0.00 42 1011.4
20260503071703 67 195 1.0 4.0 0.00 0.00 0.00 44 1011.6
20260503071603 67 195 1.0 4.0 0.00 0.00 0.00 44 1011.5
20260503071503 67 192 1.0 4.0 0.00 0.00 0.00 44 1011.4
20260503071403 67 210 1.0 3.0 0.00 0.00 0.00 45 1011.5
20260503071303 67 212 1.0 3.0 0.00 0.00 0.00 45 1011.5
20260503071203 67 202 1.0 2.0 0.00 0.00 0.00 45 1011.4
20260503071103 67 202 1.0 2.0 0.00 0.00 0.00 45 1011.6
20260503071004 67 202 1.0 2.0 0.00 0.00 0.00 45 1011.5
20260503070904 67 200 1.0 2.0 0.00 0.00 0.00 45 1011.6
20260503070804 67 198 2.0 2.0 0.00 0.00 0.00 45 1011.5
20260503070704 67 194 2.0 4.0 0.00 0.00 0.00 49 1011.6
20260503070604 67 191 2.0 4.0 0.00 0.00 0.00 49 1011.5
20260503070504 67 189 2.0 4.0 0.00 0.00 0.00 49 1011.5
20260503070404 67 180 2.0 4.0 0.00 0.00 0.00 49 1011.6
20260503070304 67 175 2.0 4.0 0.00 0.00 0.00 49 1011.6
20260503070204 67 174 2.0 4.0 0.00 0.00 0.00 49 1011.5
20260503070104 67 175 2.0 4.0 0.00 0.00 0.00 49 1011.4
20260503060303 56 216 1.0 2.0 0.00 0.00 0.00 75 1011.4
20260503060203 56 214 1.0 2.0 0.00 0.00 0.00 75 1011.5
20260503060103 56 211 1.0 2.0 0.00 0.00 0.00 75 1011.6
20260503055104 55 0 0.0 0.0 0.00 0.00 0.00 75 1011.4
20260503055004 55 0 0.0 0.0 0.00 0.00 0.00 75 1011.4
20260503054904 54 0 0.0 0.0 0.00 0.00 0.00 74 1011.3
20260503054804 54 0 0.0 0.0 0.00 0.00 0.00 74 1011.3
20260503054704 54 0 0.0 0.0 0.00 0.00 0.00 78 1011.3
20260503054604 54 0 0.0 0.0 0.00 0.00 0.00 78 1011.3
20260503054504 54 0 0.0 0.0 0.00 0.00 0.00 75 1011.3
20260503054403 54 0 0.0 0.0 0.00 0.00 0.00 75 1011.3
20260503054303 54 0 0.0 0.0 0.00 0.00 0.00 75 1011.4
20260503054203 55 0 0.0 0.0 0.00 0.00 0.00 75 1011.4
20260503054103 55 0 0.0 0.0 0.00 0.00 0.00 75 1011.5
20260503054003 55 0 0.0 0.0 0.00 0.00 0.00 75 1011.4
20260503053903 55 0 0.0 0.0 0.00 0.00 0.00 75 1011.4
20260503053803 55 0 0.0 0.0 0.00 0.00 0.00 75 1011.4
20260503053703 55 0 0.0 0.0 0.00 0.00 0.00 75 1011.5
20260503053603 55 180 0.0 1.0 0.00 0.00 0.00 76 1011.5
20260503053503 55 180 0.0 1.0 0.00 0.00 0.00 76 1011.4
20260503053403 55 180 0.0 1.0 0.00 0.00 0.00 76 1011.5
20260503053303 55 180 0.0 1.0 0.00 0.00 0.00 76 1011.6
20260503053204 55 180 0.0 1.0 0.00 0.00 0.00 76 1011.4
20260503053104 55 180 0.0 1.0 0.00 0.00 0.00 76 1011.5
20260503053004 55 180 0.0 1.0 0.00 0.00 0.00 76 1011.5
20260503052905 55 180 0.0 1.0 0.00 0.00 0.00 76 1011.6
20260503052804 55 180 0.0 1.0 0.00 0.00 0.00 76 1011.4
20260503052703 55 180 0.0 1.0 0.00 0.00 0.00 76 1011.6
20260503052604 55 0 0.0 0.0 0.00 0.00 0.00 77 1011.6
20260503052503 55 0 0.0 0.0 0.00 0.00 0.00 77 1011.6
20260503052403 55 0 0.0 0.0 0.00 0.00 0.00 77 1011.6
20260503052305 55 0 0.0 0.0 0.00 0.00 0.00 77 1011.5
20260503052203 55 0 0.0 0.0 0.00 0.00 0.00 78 1011.5
20260503052104 55 0 0.0 0.0 0.00 0.00 0.00 78 1011.5
20260503051704 55 0 0.0 0.0 0.00 0.00 0.00 78 1011.4